Location: Champseau
(45.8333°N, 1.7667°E)
Time: 06:53:24
(UTC+00:00)

ATLAS 5 CENTAUR R/B - Pass Details

Date: 18 April 2021
Orbit: 257 x 14164 km, 60.8° (Epoch: 15 May)

Event Time Altitude Azimuth Distance (km) Brightness Sun altitude
Rises 19:16:25 0° 321° (NW) 2,137 6.1 -6.2°
Reaches altitude 10° 19:18:25 10° 331° (NNW) 1,085 4.2 -6.5°
Maximum altitude 19:20:16 36° 44° (NE) 435 1.2 -6.8°
Drops below altitude 10° 19:22:20 10° 116° (ESE) 1,231 2.9 -7.1°
Enters shadow 19:22:22 10° 116° (ESE) 1,243 2.9 -7.1°
